User: anonymous   Login
Location: Hepcat Sky Observatory
(29.9800°N, 95.6500°W)
Time: 08:32:37
(UTC-06:00)
Language:

Cosmos 2151 Rocket - Orbit

View from above orbital plane
View from above orbital plane
View from above satellite
View from above satellite

Ground track
Ground track

The orbit data is extracted from the following two-line orbital elements,

1 21423U 91042B   16339.84598364  .00000082  00000-0  78614-5 0  9998
2 21423  82.4922 143.0276 0018058 162.4920 197.6920 14.79668346373843
Epoch (UTC): 04 December 2016 20:18:12
Eccentricity: 0.0018058
inclination: 82.4922°
perigee height: 618 km
apogee height: 643 km
right ascension of ascending node: 143.0276°
argument of perigee: 162.4920°
revolutions per day: 14.79668346
mean anomaly at epoch: 197.6920°
orbit number at epoch: 37384

The dashed part of the orbit path shows where the satellite is in the earth's shadow,  

DLR